カタログに戻る

STARLINK-2144

運用中通信VLEO
NORAD 47734·PAYLOAD·🇺🇸 United States

打ち上げ Mar 4, 2021 から Cape Canaveral Space Force Station

Loading…

次のパス (今後24時間)

TLE

最新Source: CelesTrak SupGP

元期: Sep 15, 2026, 00:49 UTC

1 47734C 21017N   26258.03451389 -.00024274  00000+0 -78048-3 0  2580
2 47734  53.1599  42.7333 0001077  81.9839  44.3966 15.31718154    13

AllMySatでSTARLINK-2144をリアルタイム追跡

Download on the App Store